When you browse on this site, cookies collect data to enhance your experience and personalize the content and advertising you see.
Visit our Privacy Policy to learn more. By continuing to use the site, you agree to this use of cookies and data.
  • In Italy
  • List of Countries
  • For 7 days
  • Water Temperature
  • Satellite Maps
  • Weather Map
  • Weather Widgets
  • user-avatar
    Login

    Hourly Weather Soboli

    Today, 19 November, Monday

    Time Temperature Precipitation Wind Pressure Humidity
    00:00 +1°C° 0 mm 2 mps 751 mmHg 96%
    01:00 +1°C° 0 mm 2 mps 752 mmHg 96%
    02:00 +1°C° 0 mm 2 mps 752 mmHg 97%
    03:00 +1°C° 0 mm 2 mps 752 mmHg 96%
    04:00 +1°C° 0 mm 2 mps 753 mmHg 96%
    05:00 0°C° 0 mm 3 mps 753 mmHg 96%
    06:00 0°C° 0 mm 3 mps 753 mmHg 96%
    07:00 0°C° 0 mm 3 mps 753 mmHg 96%
    08:00 0°C° 0 mm 3 mps 754 mmHg 96%
    09:00 0°C° 0 mm 3 mps 754 mmHg 94%
    10:00 0°C° 0 mm 3 mps 755 mmHg 93%
    11:00 +1°C° 0 mm 3 mps 755 mmHg 92%
    12:00 +1°C° 0 mm 3 mps 755 mmHg 91%
    13:00 +1°C° 0 mm 3 mps 755 mmHg 90%
    14:00 +1°C° 0 mm 3 mps 755 mmHg 89%
    15:00 0°C° 0 mm 3 mps 755 mmHg 90%
    16:00 0°C° 0 mm 3 mps 756 mmHg 90%
    17:00 0°C° 0 mm 3 mps 756 mmHg 91%
    18:00 -1°C° 0 mm 3 mps 756 mmHg 91%
    19:00 -1°C° 0 mm 3 mps 756 mmHg 91%
    20:00 -1°C° 0 mm 3 mps 756 mmHg 91%
    21:00 -1°C° 0 mm 3 mps 756 mmHg 91%
    22:00 -1°C° 0 mm 3 mps 756 mmHg 91%
    23:00 -2°C° 0 mm 3 mps 756 mmHg 91%

    Tomorrow, 20 November, Tuesday

    Time Temperature Precipitation Wind Pressure Humidity
    00:00 -2°C° 0 mm 2 mps 756 mmHg 90%
    01:00 -2°C° 0 mm 2 mps 756 mmHg 90%
    02:00 -2°C° 0 mm 2 mps 756 mmHg 90%
    03:00 -3°C° 0 mm 2 mps 755 mmHg 90%
    04:00 -3°C° 0 mm 2 mps 755 mmHg 90%
    05:00 -3°C° 0 mm 2 mps 755 mmHg 90%
    06:00 -4°C° 0 mm 2 mps 755 mmHg 91%
    07:00 -4°C° 0 mm 2 mps 755 mmHg 91%
    08:00 -4°C° 0 mm 2 mps 755 mmHg 91%
    09:00 -4°C° 0 mm 2 mps 755 mmHg 89%
    10:00 -1°C° 0 mm 1 mps 755 mmHg 86%
    11:00 0°C° 0 mm 1 mps 755 mmHg 84%
    12:00 0°C° 0 mm 1 mps 754 mmHg 83%
    13:00 0°C° 0 mm 1 mps 754 mmHg 83%
    14:00 0°C° 0 mm 1 mps 754 mmHg 82%
    15:00 -1°C° 0 mm 1 mps 754 mmHg 85%
    16:00 -2°C° 0 mm 1 mps 754 mmHg 89%
    17:00 -2°C° 0 mm 1 mps 754 mmHg 92%
    18:00 -3°C° 0 mm 1 mps 754 mmHg 92%
    19:00 -3°C° 0 mm 1 mps 753 mmHg 93%
    20:00 -3°C° 0 mm 1 mps 753 mmHg 93%
    21:00 -3°C° 0 mm 1 mps 753 mmHg 93%
    22:00 -3°C° 0 mm 1 mps 753 mmHg 92%
    23:00 -3°C° 0 mm 1 mps 753 mmHg 92%

    Day after tomorrow, 21 November, Wednesday

    Time Temperature Precipitation Wind Pressure Humidity
    00:00 -3°C° 0 mm 1 mps 753 mmHg 91%
    01:00 -5°C° 0 mm 2 mps 753 mmHg 90%
    02:00 -5°C° 0 mm 2 mps 753 mmHg 89%
    03:00 -5°C° 0 mm 2 mps 753 mmHg 88%
    04:00 -5°C° 0 mm 2 mps 753 mmHg 86%
    05:00 -5°C° 0 mm 2 mps 753 mmHg 85%
    06:00 -4°C° 0 mm 2 mps 753 mmHg 86%
    07:00 -4°C° 0 mm 2 mps 753 mmHg 87%
    08:00 -4°C° 0 mm 2 mps 753 mmHg 88%
    09:00 -4°C° 0 mm 3 mps 753 mmHg 86%
    10:00 -2°C° 0 mm 3 mps 753 mmHg 84%
    11:00 -1°C° 0 mm 3 mps 753 mmHg 83%
    12:00 -1°C° 0 mm 3 mps 753 mmHg 81%
    13:00 -1°C° 0 mm 3 mps 753 mmHg 80%
    14:00 -1°C° 0 mm 2 mps 753 mmHg 79%
    15:00 -2°C° 0 mm 2 mps 753 mmHg 81%
    16:00 -2°C° 0 mm 2 mps 753 mmHg 83%
    17:00 -2°C° 0 mm 2 mps 753 mmHg 85%
    18:00 -3°C° 0 mm 2 mps 753 mmHg 88%
    19:00 -3°C° 0 mm 2 mps 753 mmHg 90%
    20:00 -4°C° 0 mm 2 mps 753 mmHg 92%
    21:00 -4°C° 0 mm 2 mps 753 mmHg 93%
    22:00 -4°C° 0 mm 2 mps 753 mmHg 93%
    23:00 -4°C° 0 mm 2 mps 753 mmHg 94%

    22 November, Thursday

    Time Temperature Precipitation Wind Pressure Humidity
    00:00 -4°C° 0 mm 2 mps 753 mmHg 93%
    01:00 -5°C° 0 mm 3 mps 753 mmHg 92%
    02:00 -5°C° 0 mm 3 mps 753 mmHg 92%
    03:00 -5°C° 0 mm 3 mps 753 mmHg 91%
    04:00 -5°C° 0 mm 3 mps 753 mmHg 91%
    05:00 -5°C° 0 mm 3 mps 752 mmHg 90%
    06:00 -5°C° 0 mm 3 mps 752 mmHg 91%
    07:00 -6°C° 0 mm 3 mps 752 mmHg 92%
    08:00 -6°C° 0 mm 3 mps 752 mmHg 93%
    09:00 -5°C° 0 mm 3 mps 752 mmHg 91%
    10:00 -5°C° 0 mm 4 mps 751 mmHg 89%
    11:00 -4°C° 0 mm 4 mps 751 mmHg 87%
    12:00 -4°C° 0 mm 4 mps 751 mmHg 85%
    13:00 -3°C° 0 mm 4 mps 750 mmHg 84%
    14:00 -3°C° 0 mm 4 mps 750 mmHg 82%
    15:00 -4°C° 0 mm 4 mps 750 mmHg 84%
    16:00 -4°C° 0 mm 4 mps 750 mmHg 86%
    17:00 -5°C° 0 mm 4 mps 750 mmHg 88%
    18:00 -5°C° 0 mm 4 mps 750 mmHg 89%
    19:00 -4°C° 0 mm 4 mps 750 mmHg 89%
    20:00 -4°C° 0 mm 4 mps 750 mmHg 90%
    21:00 -4°C° 0 mm 4 mps 751 mmHg 89%
    22:00 -4°C° 0 mm 4 mps 751 mmHg 88%
    23:00 -2°C° 0 mm 3 mps 751 mmHg 87%

    23 November, Friday

    Time Temperature Precipitation Wind Pressure Humidity
    00:00 -2°C° 0 mm 3 mps 752 mmHg 89%
    01:00 -4°C° 0 mm 3 mps 752 mmHg 90%
    02:00 -4°C° 0 mm 3 mps 752 mmHg 92%
    03:00 -3°C° 0 mm 2 mps 752 mmHg 93%
    04:00 -3°C° 0 mm 2 mps 753 mmHg 93%
    05:00 -3°C° 0 mm 2 mps 753 mmHg 94%
    06:00 -3°C° 0 mm 2 mps 753 mmHg 94%
    07:00 0°C° 0 mm 1 mps 754 mmHg 94%
    08:00 0°C° 0 mm 1 mps 754 mmHg 94%
    09:00 0°C° 0 mm 1 mps 754 mmHg 92%
    10:00 0°C° 0 mm 1 mps 754 mmHg 90%
    11:00 +1°C° 0 mm 1 mps 755 mmHg 89%
    12:00 +1°C° 0 mm 1 mps 755 mmHg 87%
    13:00 -1°C° 0 mm 2 mps 755 mmHg 85%
    14:00 -1°C° 0 mm 2 mps 754 mmHg 83%
    15:00 -1°C° 0 mm 2 mps 754 mmHg 85%
    16:00 -2°C° 0 mm 2 mps 754 mmHg 86%
    17:00 -2°C° 0 mm 2 mps 754 mmHg 87%
    18:00 -2°C° 0 mm 3 mps 754 mmHg 88%
    19:00 -4°C° 0 mm 3 mps 754 mmHg 89%
    20:00 -4°C° 0 mm 3 mps 753 mmHg 90%
    21:00 -4°C° 0 mm 3 mps 753 mmHg 91%
    22:00 -5°C° 0 mm 3 mps 753 mmHg 91%
    23:00 -5°C° 0 mm 3 mps 753 mmHg 91%

    24 November, Saturday

    Time Temperature Precipitation Wind Pressure Humidity
    00:00 -5°C° 0 mm 3 mps 752 mmHg 92%
    01:00 -6°C° 0 mm 3 mps 752 mmHg 92%
    02:00 -7°C° 0 mm 4 mps 752 mmHg 92%
    03:00 -6°C° 0 mm 3 mps 751 mmHg 92%
    04:00 -6°C° 0 mm 3 mps 751 mmHg 92%
    05:00 -6°C° 0 mm 3 mps 750 mmHg 93%
    06:00 -7°C° 0 mm 3 mps 750 mmHg 92%
    07:00 -7°C° 0 mm 3 mps 750 mmHg 92%
    08:00 -7°C° 0 mm 3 mps 750 mmHg 91%
    09:00 -6°C° 0 mm 3 mps 750 mmHg 88%
    10:00 -6°C° 0 mm 3 mps 749 mmHg 85%
    11:00 -5°C° 0 mm 3 mps 749 mmHg 82%
    12:00 -5°C° 0 mm 3 mps 749 mmHg 81%
    13:00 -4°C° 0 mm 3 mps 748 mmHg 81%
    14:00 -4°C° 0 mm 3 mps 748 mmHg 80%
    15:00 -5°C° 0 mm 3 mps 748 mmHg 83%
    16:00 -5°C° 0 mm 3 mps 748 mmHg 85%
    17:00 -6°C° 0 mm 3 mps 747 mmHg 88%
    18:00 -5°C° 0 mm 2 mps 747 mmHg 88%
    19:00 -5°C° 0 mm 2 mps 747 mmHg 89%
    20:00 -5°C° 0 mm 2 mps 747 mmHg 89%
    21:00 -5°C° 0 mm 2 mps 747 mmHg 89%
    22:00 -5°C° 0 mm 2 mps 747 mmHg 88%
    23:00 -5°C° 0 mm 2 mps 746 mmHg 88%
    Show more